Time,TemperatureF,DewpointF,PressureIn,WindDirection,WindDirectionDegrees,WindSpeedMPH,WindSpeedGustMPH,Humidity,HourlyPrecipIn,Conditions,Clouds,dailyrainin,SolarRadiationWatts/m^2,SoftwareType,DateUTC
2013-02-10 00:00:00,30.1,12.5,29.74,WNW,299,11.0,-999.0,51,-99.99,,,0.00,0.0,cwc,2013-02-10 07:00:00,
2013-02-10 00:05:00,30.1,11.7,29.74,NW,308,13.0,-999.0,49,-99.99,,,0.00,0.0,cwc,2013-02-10 07:05:00,
2013-02-10 00:10:00,30.1,11.4,29.74,West,268,10.0,-999.0,48,-99.99,,,0.00,0.0,cwc,2013-02-10 07:10:00,
2013-02-10 00:15:00,30.0,11.6,29.74,WNW,302,8.0,-999.0,49,-99.99,,,0.00,0.0,cwc,2013-02-10 07:15:00,
2013-02-10 00:20:00,30.0,12.0,29.80,WSW,258,10.0,-999.0,50,-99.99,,,0.00,0.0,cwc,2013-02-10 07:20:00,
2013-02-10 00:25:00,30.0,11.3,29.80,WNW,284,9.0,-999.0,48,-99.99,,,0.00,0.0,cwc,2013-02-10 07:25:00,
2013-02-10 00:30:00,30.0,12.0,29.80,West,271,7.0,-999.0,50,-99.99,,,0.00,0.0,cwc,2013-02-10 07:30:00,
2013-02-10 00:35:00,30.0,11.6,29.81,West,270,14.0,-999.0,49,-99.99,,,0.00,0.0,cwc,2013-02-10 07:35:00,
2013-02-10 00:40:00,29.8,11.1,29.81,WSW,237,7.0,-999.0,48,-99.99,,,0.00,0.0,cwc,2013-02-10 07:40:00,
2013-02-10 00:45:00,30.1,12.1,29.81,SW,230,15.0,-999.0,50,-99.99,,,0.00,0.0,cwc,2013-02-10 07:45:00,
2013-02-10 00:50:00,29.8,12.2,29.80,WSW,244,6.0,-999.0,51,-99.99,,,0.00,0.0,cwc,2013-02-10 07:50:00,
2013-02-10 00:55:00,29.7,12.1,29.80,WNW,289,2.0,-999.0,51,-99.99,,,0.00,0.0,cwc,2013-02-10 07:55:00,
2013-02-10 01:00:00,29.5,12.2,29.80,West,281,4.0,-999.0,52,-99.99,,,0.00,0.0,cwc,2013-02-10 08:00:00,
2013-02-10 01:05:00,29.5,12.6,29.81,WSW,239,6.0,-999.0,53,-99.99,,,0.00,0.0,cwc,2013-02-10 08:05:00,
2013-02-10 01:10:00,30.1,12.8,29.81,SW,230,4.0,-999.0,52,-99.99,,,0.00,0.0,cwc,2013-02-10 08:10:00,
2013-02-10 01:15:00,29.7,12.8,29.81,West,277,6.0,-999.0,53,-99.99,,,0.00,0.0,cwc,2013-02-10 08:15:00,
2013-02-10 01:20:00,29.5,11.9,29.79,WSW,256,2.0,-999.0,51,-99.99,,,0.00,0.0,cwc,2013-02-10 08:20:00,
2013-02-10 01:25:00,30.0,12.4,29.79,SW,227,7.0,-999.0,51,-99.99,,,0.00,0.0,cwc,2013-02-10 08:25:00,
2013-02-10 01:30:00,30.1,14.6,29.79,WSW,239,0.0,-999.0,57,-99.99,,,0.00,0.0,cwc,2013-02-10 08:30:00,
2013-02-10 01:35:00,30.1,13.2,29.79,SE,141,2.0,-999.0,53,-99.99,,,0.00,0.0,cwc,2013-02-10 08:35:00,
2013-02-10 01:40:00,30.0,13.1,29.79,WSW,240,4.0,-999.0,53,-99.99,,,0.00,0.0,cwc,2013-02-10 08:40:00,
2013-02-10 01:45:00,30.1,12.8,29.79,SSW,198,6.0,-999.0,52,-99.99,,,0.00,0.0,cwc,2013-02-10 08:45:00,
2013-02-10 01:50:00,32.7,19.4,29.79,SSW,198,0.0,-999.0,63,-99.99,,,0.00,0.0,cwc,2013-02-10 08:50:00,
2013-02-10 01:55:00,34.4,21.8,29.79,SSW,198,0.0,-999.0,65,-99.99,,,0.00,0.0,cwc,2013-02-10 08:55:00,
2013-02-10 02:00:00,31.3,16.9,29.79,SSW,195,4.0,-999.0,60,-99.99,,,0.00,0.0,cwc,2013-02-10 09:00:00,
2013-02-10 02:05:00,30.3,14.8,29.79,WNW,288,6.0,-999.0,57,-99.99,,,0.00,0.0,cwc,2013-02-10 09:05:00,
2013-02-10 02:10:00,29.7,13.5,29.79,NW,316,8.0,-999.0,55,-99.99,,,0.00,0.0,cwc,2013-02-10 09:10:00,
2013-02-10 02:15:00,29.5,12.2,29.79,WSW,254,1.0,-999.0,52,-99.99,,,0.00,0.0,cwc,2013-02-10 09:15:00,
2013-02-10 02:20:00,29.4,13.6,29.80,WNW,294,0.0,-999.0,56,-99.99,,,0.00,0.0,cwc,2013-02-10 09:20:00,
2013-02-10 02:25:00,29.3,12.0,29.80,NW,305,2.0,-999.0,52,-99.99,,,0.00,0.0,cwc,2013-02-10 09:25:00,
2013-02-10 02:30:00,28.8,11.5,29.80,NW,312,6.0,-999.0,52,-99.99,,,0.00,0.0,cwc,2013-02-10 09:30:00,
2013-02-10 02:35:00,28.8,12.2,29.82,NW,312,0.0,-999.0,54,-99.99,,,0.00,0.0,cwc,2013-02-10 09:35:00,
2013-02-10 02:40:00,28.7,11.8,29.82,NNW,340,7.0,-999.0,53,-99.99,,,0.00,0.0,cwc,2013-02-10 09:40:00,
2013-02-10 02:45:00,28.5,11.6,29.82,WNW,289,2.0,-999.0,53,-99.99,,,0.00,0.0,cwc,2013-02-10 09:45:00,
2013-02-10 02:50:00,28.5,11.6,29.82,NW,313,1.0,-999.0,53,-99.99,,,0.00,0.0,cwc,2013-02-10 09:50:00,
2013-02-10 02:55:00,28.5,11.9,29.82,NW,306,6.0,-999.0,54,-99.99,,,0.00,0.0,cwc,2013-02-10 09:55:00,
2013-02-10 03:00:00,28.5,12.3,29.82,WNW,298,4.0,-999.0,55,-99.99,,,0.00,0.0,cwc,2013-02-10 10:00:00,
2013-02-10 03:05:00,28.7,12.1,29.82,NW,311,4.0,-999.0,54,-99.99,,,0.00,0.0,cwc,2013-02-10 10:05:00,
2013-02-10 03:10:00,28.7,11.8,29.82,NW,315,7.0,-999.0,53,-99.99,,,0.00,0.0,cwc,2013-02-10 10:10:00,
2013-02-10 03:15:00,28.4,12.9,29.82,WNW,302,6.0,-999.0,57,-99.99,,,0.00,0.0,cwc,2013-02-10 10:15:00,
2013-02-10 03:20:00,29.1,13.6,29.82,WSW,241,0.0,-999.0,57,-99.99,,,0.00,0.0,cwc,2013-02-10 10:20:00,
2013-02-10 03:25:00,28.4,12.9,29.82,SW,230,0.0,-999.0,57,-99.99,,,0.00,0.0,cwc,2013-02-10 10:25:00,
2013-02-10 03:30:00,28.4,15.1,29.82,SW,215,0.0,-999.0,63,-99.99,,,0.00,0.0,cwc,2013-02-10 10:30:00,
2013-02-10 03:35:00,29.3,16.0,29.82,SW,215,2.0,-999.0,63,-99.99,,,0.00,0.0,cwc,2013-02-10 10:35:00,
2013-02-10 03:40:00,28.1,14.8,29.82,SW,216,1.0,-999.0,63,-99.99,,,0.00,0.0,cwc,2013-02-10 10:40:00,
2013-02-10 03:45:00,27.9,14.9,29.82,West,270,6.0,-999.0,64,-99.99,,,0.00,0.0,cwc,2013-02-10 10:45:00,
2013-02-10 03:50:00,27.6,12.8,29.82,West,267,7.0,-999.0,59,-99.99,,,0.00,0.0,cwc,2013-02-10 10:50:00,
2013-02-10 03:55:00,29.7,17.8,29.82,South,188,4.0,-999.0,67,-99.99,,,0.00,0.0,cwc,2013-02-10 10:55:00,
2013-02-10 04:00:00,27.3,14.0,29.82,WSW,256,4.0,-999.0,63,-99.99,,,0.00,0.0,cwc,2013-02-10 11:00:00,
2013-02-10 04:05:00,27.3,14.3,29.83,West,264,4.0,-999.0,64,-99.99,,,0.00,0.0,cwc,2013-02-10 11:05:00,
2013-02-10 04:10:00,27.2,14.6,29.83,WNW,302,11.0,-999.0,65,-99.99,,,0.00,0.0,cwc,2013-02-10 11:10:00,
2013-02-10 04:15:00,27.6,15.0,29.83,WSW,243,10.0,-999.0,65,-99.99,,,0.00,0.0,cwc,2013-02-10 11:15:00,
2013-02-10 04:20:00,27.2,14.6,29.83,SW,226,9.0,-999.0,65,-99.99,,,0.00,0.0,cwc,2013-02-10 11:20:00,
2013-02-10 04:25:00,27.0,14.8,29.83,SW,229,4.0,-999.0,66,-99.99,,,0.00,0.0,cwc,2013-02-10 11:25:00,
2013-02-10 04:30:00,26.9,14.7,29.83,SW,233,2.0,-999.0,66,-99.99,,,0.00,0.0,cwc,2013-02-10 11:30:00,
2013-02-10 04:40:00,26.7,15.2,29.86,WSW,256,4.0,-999.0,68,-99.99,,,0.00,0.0,cwc,2013-02-10 11:40:00,
2013-02-10 04:45:00,26.6,14.7,29.86,WSW,246,2.0,-999.0,67,-99.99,,,0.00,0.0,cwc,2013-02-10 11:45:00,
2013-02-10 04:50:00,26.9,15.4,29.86,West,278,1.0,-999.0,68,-99.99,,,0.00,0.0,cwc,2013-02-10 11:50:00,
2013-02-10 04:55:00,26.6,14.4,29.86,West,274,0.0,-999.0,66,-99.99,,,0.00,0.0,cwc,2013-02-10 11:55:00,
2013-02-10 05:00:00,26.6,14.4,29.86,West,261,6.0,-999.0,66,-99.99,,,0.00,0.0,cwc,2013-02-10 12:00:00,
2013-02-10 05:05:00,26.7,14.5,29.86,WSW,251,0.0,-999.0,66,-99.99,,,0.00,0.0,cwc,2013-02-10 12:05:00,
2013-02-10 05:10:00,27.6,12.1,29.86,WSW,250,7.0,-999.0,57,-99.99,,,0.00,0.0,cwc,2013-02-10 12:10:00,
2013-02-10 05:15:00,27.0,16.9,29.86,WSW,243,2.0,-999.0,72,-99.99,,,0.00,0.0,cwc,2013-02-10 12:15:00,
2013-02-10 05:20:00,27.0,16.2,29.86,WSW,241,2.0,-999.0,70,-99.99,,,0.00,0.0,cwc,2013-02-10 12:20:00,
2013-02-10 05:25:00,26.4,16.0,29.86,WSW,241,1.0,-999.0,71,-99.99,,,0.00,0.0,cwc,2013-02-10 12:25:00,
2013-02-10 05:30:00,26.3,14.8,29.86,West,277,2.0,-999.0,68,-99.99,,,0.00,0.0,cwc,2013-02-10 12:30:00,
2013-02-10 05:35:00,26.1,14.6,29.88,WSW,243,4.0,-999.0,68,-99.99,,,0.00,0.0,cwc,2013-02-10 12:35:00,
2013-02-10 05:40:00,26.1,14.6,29.88,WSW,243,4.0,-999.0,68,-99.99,,,0.00,0.0,cwc,2013-02-10 12:40:00,
2013-02-10 05:45:00,26.9,15.7,29.88,WSW,237,4.0,-999.0,69,-99.99,,,0.00,0.0,cwc,2013-02-10 12:45:00,
2013-02-10 05:50:00,32.4,25.6,29.83,WSW,237,0.0,-999.0,81,-99.99,,,0.00,0.0,cwc,2013-02-10 12:50:00,
2013-02-10 05:55:00,27.8,24.2,29.83,WSW,237,0.0,-999.0,90,-99.99,,,0.00,0.0,cwc,2013-02-10 12:55:00,
2013-02-10 06:00:00,25.8,18.6,29.83,WSW,237,0.0,-999.0,80,-99.99,,,0.00,0.0,cwc,2013-02-10 13:00:00,
2013-02-10 06:05:00,25.7,18.1,29.88,WSW,237,0.0,-999.0,79,-99.99,,,0.00,0.0,cwc,2013-02-10 13:05:00,
2013-02-10 06:10:00,27.5,19.9,29.88,WSW,237,0.0,-999.0,79,-99.99,,,0.00,0.0,cwc,2013-02-10 13:10:00,
2013-02-10 06:15:00,25.8,20.8,29.88,WSW,237,0.0,-999.0,86,-99.99,,,0.00,0.0,cwc,2013-02-10 13:15:00,
2013-02-10 06:20:00,27.3,2.5,29.90,WSW,237,0.0,-999.0,31,-99.99,,,0.00,0.0,cwc,2013-02-10 13:20:00,
2013-02-10 06:25:00,27.0,11.9,29.90,WSW,237,0.0,-999.0,58,-99.99,,,0.00,0.0,cwc,2013-02-10 13:25:00,
2013-02-10 06:30:00,25.6,21.3,29.90,WSW,237,0.0,-999.0,88,-99.99,,,0.00,0.0,cwc,2013-02-10 13:30:00,
2013-02-10 06:35:00,25.4,19.3,29.92,South,191,0.0,-999.0,83,-99.99,,,0.00,0.0,cwc,2013-02-10 13:35:00,
2013-02-10 06:40:00,24.8,18.3,29.92,SSW,192,2.0,-999.0,82,-99.99,,,0.00,0.0,cwc,2013-02-10 13:40:00,
2013-02-10 06:45:00,25.7,18.9,29.92,SSW,192,0.0,-999.0,81,-99.99,,,0.00,0.0,cwc,2013-02-10 13:45:00,
2013-02-10 06:50:00,25.7,19.2,29.91,SSW,192,0.0,-999.0,82,-99.99,,,0.00,0.0,cwc,2013-02-10 13:50:00,
2013-02-10 06:55:00,26.7,20.9,29.91,SSW,192,0.0,-999.0,84,-99.99,,,0.00,0.0,cwc,2013-02-10 13:55:00,
2013-02-10 07:00:00,25.4,21.8,29.91,SSW,192,0.0,-999.0,90,-99.99,,,0.00,0.0,cwc,2013-02-10 14:00:00,
2013-02-10 07:05:00,30.7,25.3,29.93,South,191,0.0,-999.0,85,-99.99,,,0.00,0.0,cwc,2013-02-10 14:05:00,
2013-02-10 07:10:00,24.7,19.3,29.93,SSW,192,0.0,-999.0,85,-99.99,,,0.00,0.0,cwc,2013-02-10 14:10:00,
2013-02-10 07:15:00,30.9,25.5,29.93,SSW,192,0.0,-999.0,85,-99.99,,,0.00,0.0,cwc,2013-02-10 14:15:00,
2013-02-10 07:20:00,26.0,10.5,29.91,SSW,192,0.0,-999.0,57,-99.99,,,0.00,0.0,cwc,2013-02-10 14:20:00,
2013-02-10 07:25:00,25.0,16.0,29.91,SSW,192,0.0,-999.0,75,-99.99,,,0.00,0.0,cwc,2013-02-10 14:25:00,
2013-02-10 07:30:00,24.1,24.1,29.91,South,188,6.0,-999.0,100,-99.99,,,0.00,0.0,cwc,2013-02-10 14:30:00,
2013-02-10 07:35:00,23.3,23.3,29.94,South,184,0.0,-999.0,100,-99.99,,,0.00,0.0,cwc,2013-02-10 14:35:00,
2013-02-10 07:40:00,23.3,23.3,29.94,South,184,0.0,-999.0,100,-99.99,,,0.00,0.0,cwc,2013-02-10 14:40:00,
2013-02-10 07:45:00,22.9,22.9,29.94,South,184,0.0,-999.0,100,-99.99,,,0.00,0.0,cwc,2013-02-10 14:45:00,
2013-02-10 07:50:00,25.6,25.6,29.96,South,184,0.0,-999.0,100,-99.99,,,0.00,0.0,cwc,2013-02-10 14:50:00,
2013-02-10 07:55:00,28.5,28.5,29.96,South,184,0.0,-999.0,100,-99.99,,,0.00,0.0,cwc,2013-02-10 14:55:00,
2013-02-10 08:00:00,26.9,26.9,29.96,South,184,0.0,-999.0,100,-99.99,,,0.00,0.0,cwc,2013-02-10 15:00:00,
2013-02-10 08:05:00,26.9,26.9,29.94,South,184,0.0,-999.0,100,-99.99,,,0.00,0.0,cwc,2013-02-10 15:05:00,
2013-02-10 08:10:00,26.7,26.7,29.94,South,184,0.0,-999.0,100,-99.99,,,0.00,0.0,cwc,2013-02-10 15:10:00,
2013-02-10 08:15:00,26.4,26.4,29.94,South,186,0.0,-999.0,100,-99.99,,,0.00,0.0,cwc,2013-02-10 15:15:00,
2013-02-10 08:20:00,27.0,27.0,29.91,South,186,0.0,-999.0,100,-99.99,,,0.00,0.0,cwc,2013-02-10 15:20:00,
2013-02-10 08:25:00,27.2,27.2,29.91,South,186,0.0,-999.0,100,-99.99,,,0.00,0.0,cwc,2013-02-10 15:25:00,
2013-02-10 08:30:00,29.1,29.1,29.91,South,186,1.0,-999.0,100,-99.99,,,0.00,0.0,cwc,2013-02-10 15:30:00,
2013-02-10 08:35:00,28.5,28.5,29.91,South,186,0.0,-999.0,100,-99.99,,,0.00,0.0,cwc,2013-02-10 15:35:00,
2013-02-10 08:40:00,28.4,28.4,29.91,SW,219,4.0,-999.0,100,-99.99,,,0.00,0.0,cwc,2013-02-10 15:40:00,
2013-02-10 08:45:00,28.5,28.5,29.91,WSW,241,7.0,-999.0,100,-99.99,,,0.00,0.0,cwc,2013-02-10 15:45:00,
2013-02-10 08:50:00,28.5,28.5,29.94,WSW,239,7.0,-999.0,100,-99.99,,,0.00,0.0,cwc,2013-02-10 15:50:00,
2013-02-10 08:55:00,28.5,28.5,29.94,West,261,6.0,-999.0,100,-99.99,,,0.00,0.0,cwc,2013-02-10 15:55:00,
2013-02-10 09:00:00,28.5,28.5,29.94,SW,232,8.0,-999.0,100,-99.99,,,0.00,0.0,cwc,2013-02-10 16:00:00,
2013-02-10 09:05:00,29.3,29.3,29.93,SW,229,6.0,-999.0,100,-99.99,,,0.00,0.0,cwc,2013-02-10 16:05:00,
2013-02-10 09:10:00,30.4,14.9,29.93,SW,229,4.0,-999.0,57,-99.99,,,0.00,0.0,cwc,2013-02-10 16:10:00,
2013-02-10 09:15:00,30.0,12.4,29.93,SSW,195,6.0,-999.0,51,-99.99,,,0.00,0.0,cwc,2013-02-10 16:15:00,
2013-02-10 09:20:00,30.7,15.9,29.93,South,185,6.0,-999.0,59,-99.99,,,0.00,0.0,cwc,2013-02-10 16:20:00,
2013-02-10 09:25:00,31.3,16.2,29.93,SSW,195,6.0,-999.0,58,-99.99,,,0.00,0.0,cwc,2013-02-10 16:25:00,
2013-02-10 09:30:00,33.1,19.8,29.93,SSE,151,8.0,-999.0,63,-99.99,,,0.00,0.0,cwc,2013-02-10 16:30:00,
2013-02-10 09:35:00,30.9,12.5,29.91,SW,234,11.0,-999.0,49,-99.99,,,0.00,0.0,cwc,2013-02-10 16:35:00,
2013-02-10 09:40:00,31.0,12.3,29.91,SSW,198,4.0,-999.0,48,-99.99,,,0.00,0.0,cwc,2013-02-10 16:40:00,
2013-02-10 09:45:00,31.2,13.9,29.91,SSW,203,6.0,-999.0,52,-99.99,,,0.00,0.0,cwc,2013-02-10 16:45:00,
2013-02-10 09:50:00,31.2,14.3,29.94,SW,232,7.0,-999.0,53,-99.99,,,0.00,0.0,cwc,2013-02-10 16:50:00,
2013-02-10 09:55:00,32.1,18.1,29.94,South,186,0.0,-999.0,61,-99.99,,,0.00,0.0,cwc,2013-02-10 16:55:00,
2013-02-10 10:00:00,33.5,20.9,29.94,South,182,6.0,-999.0,65,-99.99,,,0.00,0.0,cwc,2013-02-10 17:00:00,
2013-02-10 10:05:00,32.2,15.6,29.92,SW,217,6.0,-999.0,54,-99.99,,,0.00,0.0,cwc,2013-02-10 17:05:00,
2013-02-10 10:10:00,32.1,12.7,29.92,SW,232,1.0,-999.0,46,-99.99,,,0.00,0.0,cwc,2013-02-10 17:10:00,
2013-02-10 10:15:00,31.8,12.7,29.92,SW,236,4.0,-999.0,47,-99.99,,,0.00,0.0,cwc,2013-02-10 17:15:00,
2013-02-10 10:20:00,32.7,15.8,29.93,SW,236,0.0,-999.0,53,-99.99,,,0.00,0.0,cwc,2013-02-10 17:20:00,
2013-02-10 10:25:00,35.6,20.5,29.93,SW,236,0.0,-999.0,58,-99.99,,,0.00,0.0,cwc,2013-02-10 17:25:00,
2013-02-10 10:30:00,33.5,17.7,29.93,SW,219,7.0,-999.0,56,-99.99,,,0.00,0.0,cwc,2013-02-10 17:30:00,
2013-02-10 10:35:00,34.1,18.3,29.92,SSE,168,6.0,-999.0,56,-99.99,,,0.00,0.0,cwc,2013-02-10 17:35:00,
2013-02-10 10:40:00,32.9,12.4,29.92,South,178,7.0,-999.0,43,-99.99,,,0.00,0.0,cwc,2013-02-10 17:40:00,
2013-02-10 10:45:00,32.4,13.3,29.92,SW,216,4.0,-999.0,47,-99.99,,,0.00,0.0,cwc,2013-02-10 17:45:00,
2013-02-10 10:50:00,32.5,12.0,29.93,SW,223,6.0,-999.0,43,-99.99,,,0.00,0.0,cwc,2013-02-10 17:50:00,
2013-02-10 10:55:00,33.2,14.8,29.93,South,176,6.0,-999.0,49,-99.99,,,0.00,0.0,cwc,2013-02-10 17:55:00,
2013-02-10 11:00:00,32.9,12.4,29.93,SW,229,7.0,-999.0,43,-99.99,,,0.00,0.0,cwc,2013-02-10 18:00:00,
2013-02-10 11:05:00,33.1,12.6,29.93,SSE,162,2.0,-999.0,43,-99.99,,,0.00,0.0,cwc,2013-02-10 18:05:00,
2013-02-10 11:10:00,34.3,15.2,29.93,SSW,195,7.0,-999.0,47,-99.99,,,0.00,0.0,cwc,2013-02-10 18:10:00,
2013-02-10 11:15:00,35.2,17.9,29.93,SSW,195,4.0,-999.0,52,-99.99,,,0.00,0.0,cwc,2013-02-10 18:15:00,
2013-02-10 11:20:00,35.2,15.0,29.91,SSE,167,7.0,-999.0,44,-99.99,,,0.00,0.0,cwc,2013-02-10 18:20:00,
2013-02-10 11:25:00,34.1,12.1,29.91,West,264,6.0,-999.0,39,-99.99,,,0.00,0.0,cwc,2013-02-10 18:25:00,
2013-02-10 11:30:00,34.4,14.2,29.91,SW,234,2.0,-999.0,44,-99.99,,,0.00,0.0,cwc,2013-02-10 18:30:00,
2013-02-10 11:35:00,35.6,14.0,29.91,SSW,196,7.0,-999.0,40,-99.99,,,0.00,0.0,cwc,2013-02-10 18:35:00,
2013-02-10 11:40:00,34.9,12.9,29.91,SW,220,9.0,-999.0,39,-99.99,,,0.00,0.0,cwc,2013-02-10 18:40:00,
2013-02-10 11:45:00,35.5,14.6,29.91,WSW,253,13.0,-999.0,42,-99.99,,,0.00,0.0,cwc,2013-02-10 18:45:00,
2013-02-10 11:50:00,36.3,15.1,29.91,WSW,256,13.0,-999.0,41,-99.99,,,0.00,0.0,cwc,2013-02-10 18:50:00,
2013-02-10 11:55:00,35.0,14.1,29.91,WNW,291,9.0,-999.0,42,-99.99,,,0.00,0.0,cwc,2013-02-10 18:55:00,
2013-02-10 12:00:00,34.7,15.6,29.91,South,174,7.0,-999.0,47,-99.99,,,0.00,0.0,cwc,2013-02-10 19:00:00,
2013-02-10 12:05:00,33.8,16.2,29.90,SSW,193,10.0,-999.0,51,-99.99,,,0.00,0.0,cwc,2013-02-10 19:05:00,
2013-02-10 12:10:00,34.1,16.1,29.90,South,171,9.0,-999.0,50,-99.99,,,0.00,0.0,cwc,2013-02-10 19:10:00,
2013-02-10 12:15:00,34.7,18.1,29.90,SSE,160,2.0,-999.0,54,-99.99,,,0.00,0.0,cwc,2013-02-10 19:15:00,
2013-02-10 12:20:00,36.2,21.4,29.91,South,169,8.0,-999.0,59,-99.99,,,0.00,0.0,cwc,2013-02-10 19:20:00,
2013-02-10 12:25:00,34.3,16.7,29.91,ESE,123,7.0,-999.0,51,-99.99,,,0.00,0.0,cwc,2013-02-10 19:25:00,
2013-02-10 12:30:00,35.0,19.9,29.91,South,184,6.0,-999.0,58,-99.99,,,0.00,0.0,cwc,2013-02-10 19:30:00,
2013-02-10 12:35:00,36.6,22.2,29.88,South,182,0.0,-999.0,60,-99.99,,,0.00,0.0,cwc,2013-02-10 19:35:00,
2013-02-10 12:40:00,37.0,18.3,29.88,SSE,152,0.0,-999.0,48,-99.99,,,0.00,0.0,cwc,2013-02-10 19:40:00,
2013-02-10 12:45:00,36.3,16.5,29.88,WNW,301,4.0,-999.0,45,-99.99,,,0.00,0.0,cwc,2013-02-10 19:45:00,
2013-02-10 12:50:00,36.3,16.5,29.87,WSW,239,6.0,-999.0,45,-99.99,,,0.00,0.0,cwc,2013-02-10 19:50:00,
2013-02-10 12:55:00,37.2,14.5,29.87,WSW,244,4.0,-999.0,37,-99.99,,,0.00,0.0,cwc,2013-02-10 19:55:00,
2013-02-10 13:00:00,37.8,15.8,29.87,SSE,154,13.0,-999.0,39,-99.99,,,0.00,0.0,cwc,2013-02-10 20:00:00,
2013-02-10 13:05:00,37.2,15.6,29.86,SW,227,8.0,-999.0,40,-99.99,,,0.00,0.0,cwc,2013-02-10 20:05:00,
2013-02-10 13:10:00,39.1,16.8,29.86,SSE,147,7.0,-999.0,38,-99.99,,,0.00,0.0,cwc,2013-02-10 20:10:00,
2013-02-10 13:15:00,37.9,15.6,29.86,West,275,0.0,-999.0,38,-99.99,,,0.00,0.0,cwc,2013-02-10 20:15:00,
2013-02-10 13:20:00,36.5,13.8,29.85,SSW,202,8.0,-999.0,37,-99.99,,,0.00,0.0,cwc,2013-02-10 20:20:00,
2013-02-10 13:25:00,36.0,12.6,29.85,WSW,246,9.0,-999.0,35,-99.99,,,0.00,0.0,cwc,2013-02-10 20:25:00,
2013-02-10 13:30:00,36.3,14.3,29.85,SSW,209,7.0,-999.0,39,-99.99,,,0.00,0.0,cwc,2013-02-10 20:30:00,
2013-02-10 13:35:00,36.5,13.8,29.85,SW,232,0.0,-999.0,37,-99.99,,,0.00,0.0,cwc,2013-02-10 20:35:00,
2013-02-10 13:40:00,37.3,14.3,29.85,SW,233,6.0,-999.0,36,-99.99,,,0.00,0.0,cwc,2013-02-10 20:40:00,
2013-02-10 13:45:00,37.9,14.9,29.85,WSW,240,0.0,-999.0,36,-99.99,,,0.00,0.0,cwc,2013-02-10 20:45:00,
2013-02-10 13:50:00,38.9,15.5,29.84,NW,320,6.0,-999.0,35,-99.99,,,0.00,0.0,cwc,2013-02-10 20:50:00,
2013-02-10 13:55:00,40.1,16.0,29.84,WSW,237,6.0,-999.0,33,-99.99,,,0.00,0.0,cwc,2013-02-10 20:55:00,
2013-02-10 14:00:00,40.2,16.1,29.84,West,280,8.0,-999.0,33,-99.99,,,0.00,0.0,cwc,2013-02-10 21:00:00,
2013-02-10 14:05:00,40.8,16.0,29.82,WNW,288,4.0,-999.0,31,-99.99,,,0.00,0.0,cwc,2013-02-10 21:05:00,
2013-02-10 14:10:00,40.2,14.6,29.82,SW,222,7.0,-999.0,29,-99.99,,,0.00,0.0,cwc,2013-02-10 21:10:00,
2013-02-10 14:15:00,40.6,15.4,29.82,West,272,7.0,-999.0,30,-99.99,,,0.00,0.0,cwc,2013-02-10 21:15:00,
2013-02-10 14:20:00,40.1,14.9,29.84,WNW,298,2.0,-999.0,30,-99.99,,,0.00,0.0,cwc,2013-02-10 21:20:00,
2013-02-10 14:25:00,39.3,13.7,29.84,SW,220,6.0,-999.0,29,-99.99,,,0.00,0.0,cwc,2013-02-10 21:25:00,
2013-02-10 14:30:00,39.8,15.3,29.84,NW,311,8.0,-999.0,32,-99.99,,,0.00,0.0,cwc,2013-02-10 21:30:00,
2013-02-10 14:35:00,41.3,16.8,29.84,SSW,210,2.0,-999.0,32,-99.99,,,0.00,0.0,cwc,2013-02-10 21:35:00,
2013-02-10 14:40:00,41.3,16.5,29.84,SW,226,0.0,-999.0,31,-99.99,,,0.00,0.0,cwc,2013-02-10 21:40:00,
2013-02-10 14:45:00,39.8,14.2,29.84,WSW,257,8.0,-999.0,29,-99.99,,,0.00,0.0,cwc,2013-02-10 21:45:00,
2013-02-10 14:50:00,38.2,12.6,29.84,SW,222,9.0,-999.0,29,-99.99,,,0.00,0.0,cwc,2013-02-10 21:50:00,
2013-02-10 14:55:00,38.2,13.7,29.84,SW,222,7.0,-999.0,32,-99.99,,,0.00,0.0,cwc,2013-02-10 21:55:00,
2013-02-10 15:00:00,38.6,15.2,29.84,SSW,196,0.0,-999.0,35,-99.99,,,0.00,0.0,cwc,2013-02-10 22:00:00,
2013-02-10 15:10:00,39.5,13.6,29.84,SW,230,7.0,-999.0,28,-99.99,,,0.00,0.0,cwc,2013-02-10 22:10:00,
2013-02-10 15:15:00,40.9,14.6,29.84,SW,232,8.0,-999.0,27,-99.99,,,0.00,0.0,cwc,2013-02-10 22:15:00,
2013-02-10 15:20:00,40.3,14.4,29.84,West,271,9.0,-999.0,28,-99.99,,,0.00,0.0,cwc,2013-02-10 22:20:00,
2013-02-10 15:25:00,38.3,13.1,29.84,SW,222,8.0,-999.0,30,-99.99,,,0.00,0.0,cwc,2013-02-10 22:25:00,
2013-02-10 15:30:00,38.8,14.0,29.84,SSW,205,7.0,-999.0,31,-99.99,,,0.00,0.0,cwc,2013-02-10 22:30:00,
2013-02-10 15:35:00,37.9,14.5,29.86,SW,234,4.0,-999.0,35,-99.99,,,0.00,0.0,cwc,2013-02-10 22:35:00,
2013-02-10 15:40:00,38.0,16.4,29.86,SW,215,2.0,-999.0,40,-99.99,,,0.00,0.0,cwc,2013-02-10 22:40:00,
2013-02-10 15:45:00,37.8,13.7,29.86,South,172,8.0,-999.0,33,-99.99,,,0.00,0.0,cwc,2013-02-10 22:45:00,
2013-02-10 15:50:00,37.8,15.1,29.87,SSE,162,4.0,-999.0,37,-99.99,,,0.00,0.0,cwc,2013-02-10 22:50:00,
2013-02-10 15:55:00,37.3,15.7,29.87,South,186,8.0,-999.0,40,-99.99,,,0.00,0.0,cwc,2013-02-10 22:55:00,
2013-02-10 16:00:00,37.8,14.8,29.87,South,186,4.0,-999.0,36,-99.99,,,0.00,0.0,cwc,2013-02-10 23:00:00,
2013-02-10 16:05:00,38.0,16.0,29.86,South,185,6.0,-999.0,39,-99.99,,,0.00,0.0,cwc,2013-02-10 23:05:00,
2013-02-10 16:10:00,37.2,14.5,29.86,SW,223,7.0,-999.0,37,-99.99,,,0.00,0.0,cwc,2013-02-10 23:10:00,
2013-02-10 16:15:00,37.0,14.7,29.86,South,169,13.0,-999.0,38,-99.99,,,0.00,0.0,cwc,2013-02-10 23:15:00,
2013-02-10 16:20:00,36.5,14.2,29.88,South,181,8.0,-999.0,38,-99.99,,,0.00,0.0,cwc,2013-02-10 23:20:00,
2013-02-10 16:25:00,37.2,15.2,29.88,SSE,151,6.0,-999.0,39,-99.99,,,0.00,0.0,cwc,2013-02-10 23:25:00,
2013-02-10 16:30:00,36.8,14.8,29.88,SW,217,6.0,-999.0,39,-99.99,,,0.00,0.0,cwc,2013-02-10 23:30:00,
2013-02-10 16:35:00,36.3,14.0,29.89,WSW,239,7.0,-999.0,38,-99.99,,,0.00,0.0,cwc,2013-02-10 23:35:00,
2013-02-10 16:40:00,36.2,15.3,29.89,SW,227,7.0,-999.0,42,-99.99,,,0.00,0.0,cwc,2013-02-10 23:40:00,
2013-02-10 16:45:00,35.3,14.8,29.89,WSW,237,15.0,-999.0,43,-99.99,,,0.00,0.0,cwc,2013-02-10 23:45:00,
2013-02-10 16:50:00,34.6,14.8,29.92,SW,234,14.0,-999.0,45,-99.99,,,0.00,0.0,cwc,2013-02-10 23:50:00,
2013-02-10 16:55:00,34.4,16.0,29.92,SW,227,8.0,-999.0,49,-99.99,,,0.00,0.0,cwc,2013-02-10 23:55:00,
2013-02-10 17:00:00,34.3,15.6,29.92,SW,222,9.0,-999.0,48,-99.99,,,0.00,0.0,cwc,2013-02-11 00:00:00,
2013-02-10 17:05:00,34.4,15.0,29.93,WNW,291,2.0,-999.0,46,-99.99,,,0.00,0.0,cwc,2013-02-11 00:05:00,
2013-02-10 17:10:00,34.3,14.9,29.93,SW,227,7.0,-999.0,46,-99.99,,,0.00,0.0,cwc,2013-02-11 00:10:00,
2013-02-10 17:15:00,34.3,15.2,29.93,SW,233,0.0,-999.0,47,-99.99,,,0.00,0.0,cwc,2013-02-11 00:15:00,
2013-02-10 17:20:00,34.7,18.9,29.93,SW,233,0.0,-999.0,56,-99.99,,,0.00,0.0,cwc,2013-02-11 00:20:00,
2013-02-10 17:25:00,38.2,20.2,29.93,SW,233,0.0,-999.0,50,-99.99,,,0.00,0.0,cwc,2013-02-11 00:25:00,
2013-02-10 17:30:00,35.3,16.2,29.93,SW,233,0.0,-999.0,47,-99.99,,,0.00,0.0,cwc,2013-02-11 00:30:00,
2013-02-10 17:35:00,35.3,16.6,29.93,SW,233,0.0,-999.0,48,-99.99,,,0.00,0.0,cwc,2013-02-11 00:35:00,
2013-02-10 17:40:00,35.2,17.2,29.93,SW,233,0.0,-999.0,50,-99.99,,,0.00,0.0,cwc,2013-02-11 00:40:00,
2013-02-10 17:45:00,36.3,16.9,29.93,SW,233,0.0,-999.0,46,-99.99,,,0.00,0.0,cwc,2013-02-11 00:45:00,
2013-02-10 17:50:00,35.8,17.4,29.92,SW,233,0.0,-999.0,49,-99.99,,,0.00,0.0,cwc,2013-02-11 00:50:00,
2013-02-10 17:55:00,37.2,25.3,29.92,SW,233,0.0,-999.0,67,-99.99,,,0.00,0.0,cwc,2013-02-11 00:55:00,
2013-02-10 18:00:00,36.0,20.2,29.92,SW,233,0.0,-999.0,56,-99.99,,,0.00,0.0,cwc,2013-02-11 01:00:00,
2013-02-10 18:05:00,35.5,17.9,29.92,SW,233,0.0,-999.0,51,-99.99,,,0.00,0.0,cwc,2013-02-11 01:05:00,
2013-02-10 18:10:00,42.8,6.8,29.92,SW,233,0.0,-999.0,0,-99.99,,,0.00,0.0,cwc,2013-02-11 01:10:00,
2013-02-10 18:15:00,43.5,7.5,29.92,SW,233,0.0,-999.0,0,-99.99,,,0.00,0.0,cwc,2013-02-11 01:15:00,
2013-02-10 18:20:00,44.1,9.5,29.87,SW,233,0.0,-999.0,4,-99.99,,,0.00,0.0,cwc,2013-02-11 01:20:00,
2013-02-10 18:25:00,37.5,9.8,29.87,SW,233,0.0,-999.0,23,-99.99,,,0.00,0.0,cwc,2013-02-11 01:25:00,
2013-02-10 18:30:00,34.6,15.9,29.87,SW,233,0.0,-999.0,48,-99.99,,,0.00,0.0,cwc,2013-02-11 01:30:00,
2013-02-10 18:35:00,40.6,21.9,29.95,SW,233,0.0,-999.0,48,-99.99,,,0.00,0.0,cwc,2013-02-11 01:35:00,
2013-02-10 18:40:00,41.8,5.8,29.95,SW,233,0.0,-999.0,0,-99.99,,,0.00,0.0,cwc,2013-02-11 01:40:00,
2013-02-10 18:45:00,36.2,4.2,29.95,SW,233,0.0,-999.0,11,-99.99,,,0.00,0.0,cwc,2013-02-11 01:45:00,
2013-02-10 18:50:00,35.8,15.3,29.95,SW,233,0.0,-999.0,43,-99.99,,,0.00,0.0,cwc,2013-02-11 01:50:00,
2013-02-10 18:55:00,40.2,4.2,29.95,SW,233,0.0,-999.0,0,-99.99,,,0.00,0.0,cwc,2013-02-11 01:55:00,
2013-02-10 19:00:00,36.3,7.1,29.95,SW,233,0.0,-999.0,19,-99.99,,,0.00,0.0,cwc,2013-02-11 02:00:00,
2013-02-10 19:05:00,37.9,12.3,29.95,SW,233,0.0,-999.0,29,-99.99,,,0.00,0.0,cwc,2013-02-11 02:05:00,
2013-02-10 19:10:00,34.3,2.6,29.95,SW,233,0.0,-999.0,12,-99.99,,,0.00,0.0,cwc,2013-02-11 02:10:00,
2013-02-10 19:15:00,33.2,1.9,29.95,SW,233,0.0,-999.0,13,-99.99,,,0.00,0.0,cwc,2013-02-11 02:15:00,
2013-02-10 19:20:00,32.7,2.1,29.98,SW,233,0.0,-999.0,15,-99.99,,,0.00,0.0,cwc,2013-02-11 02:20:00,
2013-02-10 19:25:00,36.5,25.3,29.98,SW,233,0.0,-999.0,69,-99.99,,,0.00,0.0,cwc,2013-02-11 02:25:00,
2013-02-10 19:30:00,40.5,34.7,29.98,SW,233,0.0,-999.0,84,-99.99,,,0.00,0.0,cwc,2013-02-11 02:30:00,
2013-02-10 19:35:00,36.0,28.1,29.90,SW,233,0.0,-999.0,78,-99.99,,,0.00,0.0,cwc,2013-02-11 02:35:00,
2013-02-10 19:40:00,34.4,3.8,29.90,SW,233,0.0,-999.0,15,-99.99,,,0.00,0.0,cwc,2013-02-11 02:40:00,
2013-02-10 19:45:00,33.1,2.1,29.90,SW,233,0.0,-999.0,14,-99.99,,,0.00,0.0,cwc,2013-02-11 02:45:00,
2013-02-10 19:50:00,32.7,2.1,29.98,SW,233,0.0,-999.0,15,-99.99,,,0.00,0.0,cwc,2013-02-11 02:50:00,
2013-02-10 19:55:00,31.6,1.7,29.98,SW,233,0.0,-999.0,17,-99.99,,,0.00,0.0,cwc,2013-02-11 02:55:00,
2013-02-10 20:00:00,33.8,24.4,29.98,SW,233,0.0,-999.0,74,-99.99,,,0.00,0.0,cwc,2013-02-11 03:00:00,
2013-02-10 20:05:00,39.6,3.6,29.96,SW,233,0.0,-999.0,0,-99.99,,,0.00,0.0,cwc,2013-02-11 03:05:00,
2013-02-10 20:10:00,39.8,3.8,29.96,SW,233,0.0,-999.0,0,-99.99,,,0.00,0.0,cwc,2013-02-11 03:10:00,
2013-02-10 20:15:00,37.0,1.0,29.96,SW,233,0.0,-999.0,0,-99.99,,,0.00,0.0,cwc,2013-02-11 03:15:00,
2013-02-10 20:20:00,35.3,10.5,29.94,SW,233,0.0,-999.0,31,-99.99,,,0.00,0.0,cwc,2013-02-11 03:20:00,
2013-02-10 20:25:00,33.8,27.0,29.94,SW,233,0.0,-999.0,81,-99.99,,,0.00,0.0,cwc,2013-02-11 03:25:00,
2013-02-10 20:30:00,34.4,25.8,29.94,SW,233,0.0,-999.0,76,-99.99,,,0.00,0.0,cwc,2013-02-11 03:30:00,
2013-02-10 20:35:00,32.7,23.3,29.96,SW,233,0.0,-999.0,74,-99.99,,,0.00,0.0,cwc,2013-02-11 03:35:00,
2013-02-10 20:40:00,32.2,22.8,29.96,SW,224,4.0,-999.0,74,-99.99,,,0.00,0.0,cwc,2013-02-11 03:40:00,
2013-02-10 20:45:00,31.9,20.0,29.96,South,178,10.0,-999.0,67,-99.99,,,0.00,0.0,cwc,2013-02-11 03:45:00,
2013-02-10 20:50:00,32.7,15.4,29.94,SSW,195,8.0,-999.0,52,-99.99,,,0.00,0.0,cwc,2013-02-11 03:50:00,
2013-02-10 20:55:00,33.1,15.8,29.94,SW,232,0.0,-999.0,52,-99.99,,,0.00,0.0,cwc,2013-02-11 03:55:00,
2013-02-10 21:00:00,33.7,18.9,29.94,SW,233,4.0,-999.0,59,-99.99,,,0.00,0.0,cwc,2013-02-11 04:00:00,
2013-02-10 21:05:00,34.3,18.1,29.97,South,175,4.0,-999.0,55,-99.99,,,0.00,0.0,cwc,2013-02-11 04:05:00,
2013-02-10 21:10:00,35.2,16.8,29.97,South,175,0.0,-999.0,49,-99.99,,,0.00,0.0,cwc,2013-02-11 04:10:00,
2013-02-10 21:15:00,37.2,24.2,29.97,South,175,0.0,-999.0,64,-99.99,,,0.00,0.0,cwc,2013-02-11 04:15:00,
2013-02-10 21:20:00,36.3,26.6,29.92,South,175,0.0,-999.0,73,-99.99,,,0.00,0.0,cwc,2013-02-11 04:20:00,
2013-02-10 21:25:00,34.3,15.6,29.92,South,175,0.0,-999.0,48,-99.99,,,0.00,0.0,cwc,2013-02-11 04:25:00,
2013-02-10 21:30:00,33.8,14.7,29.92,South,175,0.0,-999.0,47,-99.99,,,0.00,0.0,cwc,2013-02-11 04:30:00,
2013-02-10 21:35:00,32.9,13.5,29.95,South,175,0.0,-999.0,46,-99.99,,,0.00,0.0,cwc,2013-02-11 04:35:00,
2013-02-10 21:40:00,32.7,14.3,29.95,South,175,0.0,-999.0,49,-99.99,,,0.00,0.0,cwc,2013-02-11 04:40:00,
2013-02-10 21:45:00,32.4,13.3,29.95,South,175,0.0,-999.0,47,-99.99,,,0.00,0.0,cwc,2013-02-11 04:45:00,
2013-02-10 21:50:00,32.5,14.5,29.95,South,175,0.0,-999.0,50,-99.99,,,0.00,0.0,cwc,2013-02-11 04:50:00,
2013-02-10 21:55:00,31.8,13.1,29.95,South,172,0.0,-999.0,48,-99.99,,,0.00,0.0,cwc,2013-02-11 04:55:00,
2013-02-10 22:00:00,31.2,12.5,29.95,SE,137,0.0,-999.0,48,-99.99,,,0.00,0.0,cwc,2013-02-11 05:00:00,
2013-02-10 22:05:00,30.7,11.6,29.97,ESE,120,0.0,-999.0,47,-99.99,,,0.00,0.0,cwc,2013-02-11 05:05:00,
2013-02-10 22:10:00,30.7,12.3,29.97,ESE,110,0.0,-999.0,49,-99.99,,,0.00,0.0,cwc,2013-02-11 05:10:00,
2013-02-10 22:15:00,30.3,11.9,29.97,ESE,110,6.0,-999.0,49,-99.99,,,0.00,0.0,cwc,2013-02-11 05:15:00,
2013-02-10 22:20:00,30.3,11.6,29.99,ESE,107,0.0,-999.0,48,-99.99,,,0.00,0.0,cwc,2013-02-11 05:20:00,
2013-02-10 22:25:00,30.0,10.9,29.99,ESE,107,0.0,-999.0,47,-99.99,,,0.00,0.0,cwc,2013-02-11 05:25:00,
2013-02-10 22:30:00,30.0,10.9,29.99,ESE,107,0.0,-999.0,47,-99.99,,,0.00,0.0,cwc,2013-02-11 05:30:00,
2013-02-10 22:35:00,29.8,11.1,30.00,ESE,107,0.0,-999.0,48,-99.99,,,0.00,0.0,cwc,2013-02-11 05:35:00,
2013-02-10 22:40:00,29.7,11.0,30.00,ESE,107,0.0,-999.0,48,-99.99,,,0.00,0.0,cwc,2013-02-11 05:40:00,
2013-02-10 22:45:00,29.5,10.8,30.00,ESE,107,0.0,-999.0,48,-99.99,,,0.00,0.0,cwc,2013-02-11 05:45:00,
2013-02-10 22:50:00,29.4,10.3,30.00,ESE,107,2.0,-999.0,47,-99.99,,,0.00,0.0,cwc,2013-02-11 05:50:00,
2013-02-10 22:55:00,29.4,9.6,30.00,East,82,2.0,-999.0,45,-99.99,,,0.00,0.0,cwc,2013-02-11 05:55:00,
2013-02-10 23:00:00,29.4,10.3,30.00,East,82,0.0,-999.0,47,-99.99,,,0.00,0.0,cwc,2013-02-11 06:00:00,
2013-02-10 23:05:00,29.3,10.6,30.00,East,82,0.0,-999.0,48,-99.99,,,0.00,0.0,cwc,2013-02-11 06:05:00,
2013-02-10 23:10:00,29.3,10.2,30.00,East,82,0.0,-999.0,47,-99.99,,,0.00,0.0,cwc,2013-02-11 06:10:00,
2013-02-10 23:15:00,29.3,10.6,30.00,East,82,0.0,-999.0,48,-99.99,,,0.00,0.0,cwc,2013-02-11 06:15:00,
2013-02-10 23:20:00,29.4,11.4,29.99,East,82,0.0,-999.0,50,-99.99,,,0.00,0.0,cwc,2013-02-11 06:20:00,
2013-02-10 23:25:00,29.3,10.6,29.99,East,82,0.0,-999.0,48,-99.99,,,0.00,0.0,cwc,2013-02-11 06:25:00,
2013-02-10 23:30:00,29.3,9.9,29.99,East,82,0.0,-999.0,46,-99.99,,,0.00,0.0,cwc,2013-02-11 06:30:00,
2013-02-10 23:40:00,29.3,9.9,29.99,East,82,0.0,-999.0,46,-99.99,,,0.00,0.0,cwc,2013-02-11 06:40:00,
2013-02-10 23:45:00,29.1,9.7,29.99,East,83,0.0,-999.0,46,-99.99,,,0.00,0.0,cwc,2013-02-11 06:45:00,
2013-02-10 23:50:00,29.0,9.6,30.00,East,83,0.0,-999.0,46,-99.99,,,0.00,0.0,cwc,2013-02-11 06:50:00,
2013-02-10 23:55:00,28.8,9.7,30.00,East,83,0.0,-999.0,47,-99.99,,,0.00,0.0,cwc,2013-02-11 06:55:00,